Вернуться в каталог

STARLINK-11499

АктивенСвязьVLEO
NORAD 62279·PAYLOAD·🇺🇸 United States

Запущен Dec 8, 2024 с Cape Canaveral Space Force Station

Loading…

Ближайшие Пролёты (ближайшие 24 часа)

TLE

СвежийSource: CelesTrak SupGP

Эпоха: Sep 14, 2026, 21:34 UTC

1 62279C 24237N   26257.89909722 -.00005688  00000+0 -44146-4 0  2570
2 62279  43.0008 356.7627 0001768 281.4697  47.3047 15.70858947    18

Отслеживайте STARLINK-11499 в реальном времени с AllMySat

Download on the App Store